Canton, MA

10:16 AM EST on February 21, 2017 (GMT -0500)
East Milton

Weather History for KMQE - February, 2012

Change the Weather History Date:

Wednesday, February 8, 2012

  Actual Average (KOWD) Record (KOWD)
Temperature  
Mean Temperature 26 °F -  
Max Temperature 35 °F 36 °F 52 °F (2017)
Min Temperature 18 °F 17 °F -2 °F (2014)
Degree Days  
Heating Degree Days 38    
Moisture  
Dew Point 7 °F    
Average Humidity 45    
Maximum Humidity 63    
Minimum Humidity 22    
Precipitation  
Precipitation 0.00 in - - ()
Sea Level Pressure  
Sea Level Pressure 30.22 in    
Wind  
Wind Speed 8 mph (WSW)    
Max Wind Speed 12 mph    
Max Gust Speed 22 mph    
Averages and records for this station are not official NWS values.
T = Trace of Precipitation, MM = Missing Value Source: NWS Daily Summary

Daily Weather History Graph

Daily Weather History Graph

Search for Another Location

Airport or City:

Trip Planner

Search our weather history database for the weather conditions in past years. The results will help you decide how hot, cold, wet, or windy it might be!

Date:

Astronomy

Feb. 08, 2012 Rise Set
Actual Time 6:50 AM EST 5:07 PM EST
Civil Twilight 6:21 AM EST 5:36 PM EST
Nautical Twilight 5:48 AM EST 6:09 PM EST
Astronomical Twilight 5:15 AM EST 6:42 PM EST
Moon 6:25 PM EST (2/8) 6:50 AM EST (2/8)
Length of Visible Light 11h 15m
Length of Day
10h 16m
Full, 99% of the Moon is Illuminated
Feb 8
Full
Feb 14
Last Quarter
Feb 21
New
Feb 29
First Quarter
Mar 8
Full

Hourly Weather History & Observations

Time (EST) Temp. Windchill Dew Point Humidity Pressure Visibility Wind Dir Wind Speed Gust Speed Precip Events Conditions
12:54 AM 26.1 °F 16.2 °F 15.1 °F 63% 30.25 in - North 10.4 mph 16.1 mph N/A   Unknown
1:54 AM 24.1 °F 13.7 °F 10.9 °F 57% 30.27 in - North 10.4 mph 21.9 mph N/A   Unknown
2:54 AM 21.9 °F 14.5 °F 9.0 °F 58% 30.28 in - North 5.8 mph - N/A   Unknown
3:54 AM 21.0 °F 10.6 °F 5.0 °F 50% 30.28 in - NNW 9.2 mph 18.4 mph N/A   Unknown
4:54 AM 19.0 °F 10.0 °F 6.1 °F 57% 30.30 in - NNW 6.9 mph - N/A   Unknown
5:54 AM 18.0 °F 9.8 °F 6.1 °F 60% 30.31 in - NNW 5.8 mph - N/A   Unknown
6:54 AM 18.0 °F 7.7 °F 5.0 °F 57% 30.32 in - North 8.1 mph - N/A   Unknown
7:54 AM 19.9 °F 12.1 °F 3.9 °F 50% 30.32 in - North 5.8 mph - N/A   Unknown
8:54 AM 23.0 °F - 5.0 °F 46% 30.33 in - Calm Calm - N/A   Unknown
9:54 AM 24.1 °F - 1.9 °F 38% 30.33 in - Calm Calm - N/A   Unknown
11:54 AM 28.9 °F 21.9 °F 1.0 °F 30% 30.27 in - South 6.9 mph - N/A   Unknown
12:54 PM 33.1 °F 24.4 °F -2.0 °F 22% 30.24 in - SW 11.5 mph 16.1 mph N/A   Unknown
1:54 PM 35.1 °F 29.3 °F 1.0 °F 24% 30.21 in - WSW 6.9 mph - N/A   Unknown
2:54 PM 34.0 °F 26.0 °F 1.9 °F 26% 30.20 in - SSW 10.4 mph - N/A   Unknown
3:54 PM 33.1 °F 26.1 °F 3.9 °F 29% 30.19 in - SSW 8.1 mph - N/A   Unknown
4:54 PM 33.1 °F 26.1 °F 3.0 °F 28% 30.17 in - South 8.1 mph - N/A   Unknown
5:54 PM 32.0 °F 24.2 °F 6.1 °F 34% 30.17 in - SSW 9.2 mph - N/A   Unknown
6:54 PM 30.9 °F 22.2 °F 10.0 °F 42% 30.17 in - South 10.4 mph - N/A   Unknown
7:54 PM 30.0 °F 22.4 °F 15.1 °F 54% 30.14 in - South 8.1 mph - N/A   Unknown
8:54 PM 30.0 °F 23.2 °F 16.0 °F 56% 30.11 in - South 6.9 mph - N/A   Unknown
9:54 PM 30.9 °F 24.3 °F 15.1 °F 52% 30.11 in - SSW 6.9 mph - N/A   Unknown
10:54 PM 30.0 °F 21.7 °F 15.1 °F 54% 30.11 in - SSW 9.2 mph - N/A   Unknown
11:54 PM 30.0 °F 22.4 °F 14.0 °F 51% 30.09 in - SSW 8.1 mph - N/A   Unknown